| time (UTC) | temp C | wind direction | speed KPH | gust KPH | rain 1hr cm | rain 24hr cm | rain mn cm | humidity % | barometer mb |
| 20260505102001 | 21 | 188 | 9.7 | 22.5 | 0.00 | 0.00 | 0.00 | 92 | 1008.3 |
| 20260505101501 | 21 | 184 | 9.7 | 20.9 | 0.00 | 0.00 | 0.00 | 92 | 1008.4 |
| 20260505101001 | 21 | 191 | 9.7 | 20.9 | 0.00 | 0.00 | 0.00 | 92 | 1008.4 |
| 20260505100723 | 21 | 228 | 11.3 | 24.1 | 0.00 | 0.00 | 0.00 | 91 | 1008.4 |
| 20260505100001 | 21 | 192 | 11.3 | 24.1 | 0.00 | 0.00 | 0.00 | 91 | 1008.4 |
| 20260505095729 | 21 | 194 | 9.7 | 22.5 | 0.00 | 0.00 | 0.00 | 91 | 1008.5 |
| 20260505095002 | 21 | 164 | 9.7 | 27.4 | 0.00 | 0.00 | 0.00 | 91 | 1008.6 |
| 20260505094501 | 21 | 225 | 11.3 | 27.4 | 0.00 | 0.00 | 0.00 | 91 | 1008.5 |
| 20260505094001 | 21 | 159 | 11.3 | 22.5 | 0.00 | 0.00 | 0.00 | 91 | 1008.5 |
| 20260505093502 | 21 | 182 | 9.7 | 20.9 | 0.00 | 0.00 | 0.00 | 91 | 1008.5 |
| 20260505093001 | 21 | 159 | 9.7 | 25.7 | 0.00 | 0.00 | 0.00 | 91 | 1008.5 |
| 20260505092727 | 21 | 207 | 9.7 | 25.7 | 0.00 | 0.00 | 0.00 | 91 | 1008.6 |
| 20260505092001 | 21 | 177 | 9.7 | 24.1 | 0.00 | 0.00 | 0.00 | 91 | 1008.5 |
| 20260505091501 | 21 | 203 | 11.3 | 24.1 | 0.00 | 0.00 | 0.00 | 91 | 1008.6 |
| 20260505091001 | 21 | 162 | 9.7 | 24.1 | 0.00 | 0.00 | 0.00 | 91 | 1008.6 |
| 20260505090500 | 21 | 203 | 9.7 | 20.9 | 0.00 | 0.00 | 0.00 | 91 | 1008.7 |
| 20260505090001 | 21 | 206 | 9.7 | 20.9 | 0.00 | 0.00 | 0.00 | 91 | 1008.8 |
| 20260505085501 | 21 | 146 | 8.0 | 17.7 | 0.00 | 0.00 | 0.00 | 91 | 1008.8 |
| 20260505085002 | 21 | 186 | 8.0 | 17.7 | 0.00 | 0.00 | 0.00 | 91 | 1008.8 |
| 20260505084501 | 21 | 177 | 9.7 | 22.5 | 0.00 | 0.00 | 0.00 | 91 | 1008.8 |
| 20260505084001 | 21 | 225 | 9.7 | 22.5 | 0.00 | 0.00 | 0.00 | 91 | 1008.9 |
| 20260505083501 | 21 | 211 | 9.7 | 19.3 | 0.00 | 0.00 | 0.00 | 91 | 1008.9 |
| 20260505083001 | 21 | 189 | 8.0 | 19.3 | 0.00 | 0.00 | 0.00 | 91 | 1008.9 |
| 20260505082502 | 21 | 199 | 9.7 | 25.7 | 0.00 | 0.00 | 0.00 | 91 | 1008.9 |
| 20260505082001 | 21 | 197 | 11.3 | 30.6 | 0.00 | 0.00 | 0.00 | 91 | 1008.7 |
| 20260505081502 | 21 | 170 | 11.3 | 30.6 | 0.00 | 0.00 | 0.00 | 91 | 1008.9 |
| 20260505081001 | 21 | 194 | 11.3 | 24.1 | 0.00 | 0.00 | 0.00 | 91 | 1009.0 |
| 20260505080502 | 21 | 211 | 9.7 | 25.7 | 0.00 | 0.00 | 0.00 | 90 | 1009.0 |
| 20260505080001 | 21 | 192 | 11.3 | 25.7 | 0.00 | 0.00 | 0.00 | 91 | 1009.0 |
| 20260505075508 | 21 | 196 | 11.3 | 25.7 | 0.00 | 0.00 | 0.00 | 91 | 1009.0 |
| 20260505075004 | 21 | 208 | 11.3 | 25.7 | 0.00 | 0.00 | 0.00 | 91 | 1009.2 |
| 20260505074459 | 21 | 165 | 12.9 | 24.1 | 0.00 | 0.00 | 0.00 | 90 | 1009.2 |
| 20260505073953 | 21 | 188 | 12.9 | 24.1 | 0.00 | 0.00 | 0.00 | 90 | 1009.2 |
| 20260505073440 | 21 | 210 | 12.9 | 27.4 | 0.00 | 0.00 | 0.00 | 90 | 1009.4 |
| 20260505073219 | 21 | 238 | 12.9 | 27.4 | 0.00 | 0.00 | 0.00 | 90 | 1009.4 |
| 20260505072445 | 21 | 188 | 12.9 | 27.4 | 0.00 | 0.00 | 0.00 | 90 | 1009.4 |
| 20260505071944 | 21 | 188 | 14.5 | 30.6 | 0.00 | 0.00 | 0.00 | 90 | 1009.4 |
| 20260505071441 | 21 | 180 | 14.5 | 30.6 | 0.00 | 0.00 | 0.00 | 90 | 1009.5 |
| 20260505070941 | 21 | 184 | 11.3 | 27.4 | 0.00 | 0.00 | 0.00 | 90 | 1009.6 |
| 20260505070440 | 21 | 198 | 9.7 | 27.4 | 0.00 | 0.00 | 0.00 | 90 | 1009.9 |
| 20260505065936 | 21 | 175 | 9.7 | 24.1 | 0.00 | 0.00 | 0.00 | 90 | 1009.9 |
| 20260505065435 | 21 | 162 | 11.3 | 25.7 | 0.00 | 0.00 | 0.00 | 90 | 1010.0 |
| 20260505064932 | 21 | 201 | 11.3 | 29.0 | 0.00 | 0.00 | 0.00 | 90 | 1010.1 |
| 20260505064432 | 21 | 172 | 12.9 | 29.0 | 0.00 | 0.00 | 0.00 | 90 | 1010.2 |
| 20260505063932 | 21 | 151 | 11.3 | 33.8 | 0.00 | 0.00 | 0.00 | 90 | 1010.3 |
| 20260505063433 | 21 | 184 | 12.9 | 33.8 | 0.00 | 0.00 | 0.00 | 89 | 1010.2 |
| 20260505062931 | 21 | 170 | 12.9 | 25.7 | 0.00 | 0.00 | 0.00 | 89 | 1010.1 |
| 20260505062429 | 21 | 205 | 11.3 | 32.2 | 0.00 | 0.00 | 0.00 | 89 | 1010.2 |
| 20260505061931 | 21 | 141 | 11.3 | 32.2 | 0.00 | 0.00 | 0.00 | 89 | 1010.5 |
| 20260505061430 | 21 | 192 | 11.3 | 38.6 | 0.00 | 0.00 | 0.00 | 89 | 1010.5 |
| 20260505061152 | 21 | 152 | 12.9 | 38.6 | 0.00 | 0.00 | 0.00 | 89 | 1010.6 |
| 20260505060650 | 21 | 181 | 11.3 | 25.7 | 0.00 | 0.00 | 0.00 | 89 | 1010.6 |
| 20260505055930 | 21 | 157 | 11.3 | 24.1 | 0.00 | 0.00 | 0.00 | 89 | 1010.6 |
| 20260505055701 | 21 | 179 | 11.3 | 30.6 | 0.00 | 0.00 | 0.00 | 89 | 1010.7 |
| 20260505054929 | 21 | 188 | 12.9 | 30.6 | 0.00 | 0.00 | 0.00 | 89 | 1010.5 |
| 20260505054651 | 21 | 174 | 12.9 | 29.0 | 0.00 | 0.00 | 0.00 | 89 | 1010.5 |
| 20260505053929 | 21 | 215 | 12.9 | 29.0 | 0.00 | 0.00 | 0.00 | 89 | 1010.5 |
| 20260505053430 | 21 | 157 | 11.3 | 24.1 | 0.00 | 0.00 | 0.00 | 89 | 1010.6 |
| 20260505052929 | 21 | 167 | 12.9 | 32.2 | 0.00 | 0.00 | 0.00 | 89 | 1010.5 |
| 20260505052429 | 21 | 181 | 12.9 | 32.2 | 0.00 | 0.00 | 0.00 | 89 | 1010.5 |
| 20260505051929 | 21 | 150 | 11.3 | 27.4 | 0.00 | 0.00 | 0.00 | 89 | 1010.4 |
| 20260505051429 | 21 | 161 | 11.3 | 27.4 | 0.00 | 0.00 | 0.00 | 89 | 1010.5 |
| 20260505050928 | 21 | 208 | 11.3 | 25.7 | 0.00 | 0.00 | 0.00 | 89 | 1010.6 |
| 20260505050429 | 21 | 166 | 11.3 | 24.1 | 0.00 | 0.00 | 0.00 | 89 | 1010.5 |
| 20260505041700 | 22 | 167 | 11.3 | 30.6 | 0.00 | 0.00 | 0.00 | 86 | 1010.3 |
| 20260505040929 | 22 | 188 | 9.7 | 20.9 | 0.00 | 0.00 | 0.00 | 86 | 1010.2 |
| 20260505040429 | 22 | 191 | 11.3 | 22.5 | 0.00 | 0.00 | 0.00 | 86 | 1010.3 |
| 20260505035929 | 22 | 187 | 11.3 | 24.1 | 0.00 | 0.00 | 0.00 | 85 | 1010.3 |
| 20260505035429 | 22 | 178 | 9.7 | 24.1 | 0.00 | 0.00 | 0.00 | 85 | 1010.3 |
| 20260505034930 | 22 | 188 | 9.7 | 22.5 | 0.00 | 0.00 | 0.00 | 85 | 1010.3 |
| 20260505034926 | 22 | 180 | 9.7 | 22.5 | 0.00 | 0.00 | 0.00 | 84 | 1010.3 |
| 20260505033928 | 22 | 148 | 8.0 | 17.7 | 0.00 | 0.00 | 0.00 | 84 | 1010.2 |
| 20260505033429 | 22 | 196 | 6.4 | 16.1 | 0.00 | 0.00 | 0.00 | 84 | 1010.3 |
| 20260505032929 | 22 | 173 | 8.0 | 19.3 | 0.00 | 0.00 | 0.00 | 83 | 1010.3 |
| 20260505032653 | 22 | 190 | 9.7 | 19.3 | 0.00 | 0.00 | 0.00 | 83 | 1010.3 |
| 20260505031928 | 22 | 161 | 8.0 | 22.5 | 0.00 | 0.00 | 0.00 | 82 | 1010.2 |
| 20260505031430 | 23 | 175 | 9.7 | 22.5 | 0.00 | 0.00 | 0.00 | 82 | 1010.2 |
| 20260505030929 | 23 | 187 | 11.3 | 27.4 | 0.00 | 0.00 | 0.00 | 82 | 1010.3 |
| 20260505030429 | 23 | 168 | 11.3 | 27.4 | 0.00 | 0.00 | 0.00 | 81 | 1010.3 |
| 20260505025929 | 23 | 174 | 11.3 | 27.4 | 0.00 | 0.00 | 0.00 | 81 | 1010.3 |
| 20260505025430 | 23 | 182 | 9.7 | 22.5 | 0.00 | 0.00 | 0.00 | 81 | 1010.3 |
| 20260505024929 | 23 | 170 | 9.7 | 22.5 | 0.00 | 0.00 | 0.00 | 81 | 1010.2 |
| 20260505024429 | 23 | 196 | 9.7 | 25.7 | 0.00 | 0.00 | 0.00 | 80 | 1010.3 |
| 20260505023929 | 23 | 165 | 9.7 | 25.7 | 0.00 | 0.00 | 0.00 | 80 | 1010.4 |
| 20260505023429 | 23 | 182 | 8.0 | 16.1 | 0.00 | 0.00 | 0.00 | 80 | 1010.4 |
| 20260505022928 | 23 | 188 | 8.0 | 17.7 | 0.00 | 0.00 | 0.00 | 79 | 1010.4 |
| 20260505022429 | 23 | 174 | 8.0 | 24.1 | 0.00 | 0.00 | 0.00 | 79 | 1010.4 |
| 20260505021924 | 23 | 175 | 8.0 | 24.1 | 0.00 | 0.00 | 0.00 | 79 | 1010.4 |
| 20260505021909 | 23 | 201 | 9.7 | 24.1 | 0.00 | 0.00 | 0.00 | 78 | 1010.3 |
| 20260505020915 | 23 | 202 | 9.7 | 24.1 | 0.00 | 0.00 | 0.00 | 78 | 1010.4 |
| 20260505020415 | 23 | 161 | 8.0 | 17.7 | 0.00 | 0.00 | 0.00 | 77 | 1010.2 |
| 20260505015913 | 23 | 200 | 8.0 | 19.3 | 0.00 | 0.00 | 0.00 | 77 | 1010.0 |
| 20260505015412 | 23 | 182 | 6.4 | 19.3 | 0.00 | 0.00 | 0.00 | 76 | 1010.1 |
| 20260505014913 | 23 | 157 | 6.4 | 14.5 | 0.00 | 0.00 | 0.00 | 76 | 1010.2 |
| 20260505014413 | 23 | 164 | 6.4 | 14.5 | 0.00 | 0.00 | 0.00 | 75 | 1010.2 |
| 20260505013912 | 23 | 150 | 6.4 | 22.5 | 0.00 | 0.00 | 0.00 | 75 | 1010.2 |
| 20260505013412 | 23 | 140 | 6.4 | 22.5 | 0.00 | 0.00 | 0.00 | 75 | 1010.2 |
| 20260505012909 | 24 | 177 | 8.0 | 22.5 | 0.00 | 0.00 | 0.00 | 75 | 1010.1 |
| 20260505012409 | 24 | 170 | 8.0 | 22.5 | 0.00 | 0.00 | 0.00 | 74 | 1010.1 |
| 20260505011909 | 24 | 157 | 8.0 | 17.7 | 0.00 | 0.00 | 0.00 | 74 | 1010.0 |
| 20260505011407 | 24 | 184 | 6.4 | 16.1 | 0.00 | 0.00 | 0.00 | 74 | 1010.1 |
| 20260505010907 | 24 | 200 | 8.0 | 16.1 | 0.00 | 0.00 | 0.00 | 74 | 1010.1 |
| 20260505010644 | 24 | 183 | 8.0 | 17.7 | 0.00 | 0.00 | 0.00 | 73 | 1010.1 |
| 20260505005906 | 25 | 157 | 9.7 | 22.5 | 0.00 | 0.00 | 0.00 | 73 | 1010.1 |
| 20260505005407 | 25 | 202 | 9.7 | 25.7 | 0.00 | 0.00 | 0.00 | 72 | 1010.1 |
| 20260505005130 | 25 | 183 | 9.7 | 25.7 | 0.00 | 0.00 | 0.00 | 72 | 1010.1 |
| 20260505004403 | 25 | 192 | 9.7 | 19.3 | 0.00 | 0.00 | 0.00 | 72 | 1010.2 |
| 20260505003901 | 25 | 178 | 12.9 | 29.0 | 0.00 | 0.00 | 0.00 | 71 | 1010.2 |
| 20260505003402 | 25 | 152 | 14.5 | 29.0 | 0.00 | 0.00 | 0.00 | 71 | 1010.2 |
| 20260505002900 | 25 | 140 | 11.3 | 29.0 | 0.00 | 0.00 | 0.00 | 71 | 1010.1 |
| 20260505002401 | 25 | 204 | 8.0 | 29.0 | 0.00 | 0.00 | 0.00 | 71 | 1010.2 |
| 20260505002125 | 25 | 173 | 11.3 | 25.7 | 0.00 | 0.00 | 0.00 | 71 | 1010.1 |
| 20260505001401 | 26 | 167 | 12.9 | 30.6 | 0.00 | 0.00 | 0.00 | 70 | 1010.1 |
| 20260505000902 | 26 | 164 | 12.9 | 30.6 | 0.00 | 0.00 | 0.00 | 70 | 1010.0 |
| 20260505000401 | 26 | 177 | 14.5 | 29.0 | 0.00 | 0.00 | 0.00 | 69 | 1009.9 |
| 20260504235902 | 26 | 148 | 12.9 | 32.2 | 0.00 | 0.00 | 0.00 | 69 | 1009.9 |
| 20260504235402 | 26 | 182 | 12.9 | 32.2 | 0.00 | 0.00 | 0.00 | 68 | 1010.0 |
| 20260504234902 | 26 | 173 | 12.9 | 30.6 | 0.00 | 0.00 | 0.00 | 68 | 1010.1 |
| 20260504234401 | 26 | 196 | 14.5 | 32.2 | 0.00 | 0.00 | 0.00 | 69 | 1010.1 |
| 20260504233901 | 26 | 170 | 14.5 | 32.2 | 0.00 | 0.00 | 0.00 | 68 | 1010.2 |
| 20260504233629 | 26 | 165 | 12.9 | 27.4 | 0.00 | 0.00 | 0.00 | 68 | 1010.2 |
| 20260504232901 | 26 | 193 | 12.9 | 27.4 | 0.00 | 0.00 | 0.00 | 68 | 1010.2 |
| 20260504232401 | 27 | 157 | 12.9 | 27.4 | 0.00 | 0.00 | 0.00 | 68 | 1010.2 |
| 20260504231901 | 27 | 195 | 12.9 | 29.0 | 0.00 | 0.00 | 0.00 | 67 | 1010.4 |
| 20260504231626 | 27 | 184 | 12.9 | 29.0 | 0.00 | 0.00 | 0.00 | 67 | 1010.4 |
| 20260504230852 | 27 | 148 | 12.9 | 30.6 | 0.00 | 0.00 | 0.00 | 67 | 1010.3 |
| 20260504230346 | 27 | 174 | 12.9 | 30.6 | 0.00 | 0.00 | 0.00 | 67 | 1010.4 |
| 20260504225840 | 27 | 144 | 12.9 | 29.0 | 0.00 | 0.00 | 0.00 | 66 | 1010.4 |
| 20260504225611 | 27 | 180 | 12.9 | 29.0 | 0.00 | 0.00 | 0.00 | 66 | 1010.4 |
| 20260504224834 | 27 | 166 | 14.5 | 29.0 | 0.00 | 0.00 | 0.00 | 66 | 1010.5 |
| 20260504224334 | 27 | 178 | 12.9 | 27.4 | 0.00 | 0.00 | 0.00 | 65 | 1010.4 |
| 20260504223835 | 28 | 138 | 11.3 | 25.7 | 0.00 | 0.00 | 0.00 | 66 | 1010.5 |
| 20260504223333 | 27 | 175 | 12.9 | 27.4 | 0.00 | 0.00 | 0.00 | 65 | 1010.6 |
| 20260504222832 | 27 | 160 | 16.1 | 30.6 | 0.00 | 0.00 | 0.00 | 65 | 1010.6 |
| 20260504222332 | 27 | 174 | 14.5 | 30.6 | 0.00 | 0.00 | 0.00 | 65 | 1010.7 |
| 20260504222110 | 27 | 149 | 12.9 | 30.6 | 0.00 | 0.00 | 0.00 | 65 | 1010.6 |
| 20260504221332 | 28 | 217 | 14.5 | 30.6 | 0.00 | 0.00 | 0.00 | 65 | 1010.7 |
| 20260504220831 | 28 | 147 | 14.5 | 24.1 | 0.00 | 0.00 | 0.00 | 64 | 1010.7 |
| 20260504220330 | 28 | 150 | 12.9 | 24.1 | 0.00 | 0.00 | 0.00 | 65 | 1010.8 |
| 20260504215829 | 28 | 168 | 14.5 | 27.4 | 0.00 | 0.00 | 0.00 | 65 | 1010.7 |
| 20260504215329 | 28 | 198 | 11.3 | 27.4 | 0.00 | 0.00 | 0.00 | 65 | 1010.8 |
| 20260504214829 | 27 | 157 | 12.9 | 33.8 | 0.00 | 0.00 | 0.00 | 65 | 1010.9 |
| 20260504214330 | 28 | 144 | 14.5 | 33.8 | 0.00 | 0.00 | 0.00 | 65 | 1010.9 |
| 20260504213828 | 28 | 178 | 12.9 | 35.4 | 0.00 | 0.00 | 0.00 | 65 | 1011.0 |
| 20260504213330 | 27 | 109 | 12.9 | 35.4 | 0.00 | 0.00 | 0.00 | 66 | 1011.1 |
| 20260504212829 | 28 | 167 | 12.9 | 30.6 | 0.00 | 0.00 | 0.00 | 65 | 1011.0 |
| 20260504212328 | 28 | 187 | 14.5 | 30.6 | 0.00 | 0.00 | 0.00 | 65 | 1011.2 |
| 20260504211822 | 27 | 169 | 14.5 | 30.6 | 0.00 | 0.00 | 0.00 | 65 | 1011.3 |
| 20260504211320 | 27 | 182 | 16.1 | 30.6 | 0.00 | 0.00 | 0.00 | 66 | 1011.5 |
| 20260504210820 | 27 | 186 | 14.5 | 30.6 | 0.00 | 0.00 | 0.00 | 64 | 1011.5 |
| 20260504210544 | 27 | 172 | 12.9 | 27.4 | 0.00 | 0.00 | 0.00 | 65 | 1011.7 |
| 20260504205820 | 27 | 130 | 14.5 | 27.4 | 0.00 | 0.00 | 0.00 | 67 | 1011.6 |
| 20260504205320 | 27 | 169 | 14.5 | 29.0 | 0.00 | 0.00 | 0.00 | 67 | 1011.8 |
| 20260504204820 | 27 | 171 | 14.5 | 29.0 | 0.00 | 0.00 | 0.00 | 66 | 1011.8 |
| 20260504204320 | 27 | 192 | 14.5 | 25.7 | 0.00 | 0.00 | 0.00 | 67 | 1012.0 |
| 20260504203820 | 27 | 169 | 12.9 | 27.4 | 0.00 | 0.00 | 0.00 | 68 | 1012.1 |
| 20260504203319 | 27 | 125 | 14.5 | 32.2 | 0.00 | 0.00 | 0.00 | 65 | 1012.1 |
| 20260504202818 | 27 | 153 | 14.5 | 32.2 | 0.00 | 0.00 | 0.00 | 65 | 1012.1 |
| 20260504202318 | 27 | 165 | 12.9 | 25.7 | 0.00 | 0.00 | 0.00 | 66 | 1012.1 |
| 20260504201819 | 27 | 163 | 11.3 | 25.7 | 0.00 | 0.00 | 0.00 | 67 | 1012.3 |
| 20260504201559 | 27 | 192 | 11.3 | 27.4 | 0.00 | 0.00 | 0.00 | 67 | 1012.4 |
| 20260504200818 | 27 | 211 | 11.3 | 27.4 | 0.00 | 0.00 | 0.00 | 66 | 1012.5 |
| 20260504200316 | 27 | 152 | 12.9 | 25.7 | 0.00 | 0.00 | 0.00 | 66 | 1012.6 |
| 20260504195816 | 27 | 113 | 12.9 | 30.6 | 0.00 | 0.00 | 0.00 | 67 | 1012.8 |
| 20260504195310 | 27 | 201 | 11.3 | 30.6 | 0.00 | 0.00 | 0.00 | 67 | 1012.7 |
| 20260504195027 | 26 | 176 | 12.9 | 32.2 | 0.00 | 0.00 | 0.00 | 66 | 1012.9 |
| 20260504194304 | 27 | 182 | 11.3 | 32.2 | 0.00 | 0.00 | 0.00 | 66 | 1013.2 |
| 20260504193804 | 27 | 189 | 12.9 | 27.4 | 0.00 | 0.00 | 0.00 | 67 | 1013.2 |
| 20260504193532 | 26 | 174 | 12.9 | 27.4 | 0.00 | 0.00 | 0.00 | 67 | 1013.4 |
| 20260504192804 | 26 | 217 | 11.3 | 27.4 | 0.00 | 0.00 | 0.00 | 68 | 1013.3 |
| 20260504192304 | 26 | 180 | 12.9 | 27.4 | 0.00 | 0.00 | 0.00 | 69 | 1013.4 |
| 20260504191805 | 26 | 178 | 12.9 | 29.0 | 0.00 | 0.00 | 0.00 | 69 | 1013.6 |
| 20260504191526 | 26 | 172 | 14.5 | 29.0 | 0.00 | 0.00 | 0.00 | 69 | 1013.7 |
| 20260504190805 | 26 | 186 | 12.9 | 27.4 | 0.00 | 0.00 | 0.00 | 68 | 1013.7 |
| 20260504190304 | 26 | 168 | 12.9 | 29.0 | 0.00 | 0.00 | 0.00 | 69 | 1013.9 |
| 20260504185804 | 25 | 179 | 11.3 | 29.0 | 0.00 | 0.00 | 0.00 | 69 | 1014.0 |
| 20260504185304 | 25 | 182 | 9.7 | 24.1 | 0.00 | 0.00 | 0.00 | 69 | 1014.1 |
| 20260504184804 | 25 | 198 | 11.3 | 29.0 | 0.00 | 0.00 | 0.00 | 69 | 1014.0 |
| 20260504184304 | 25 | 197 | 11.3 | 29.0 | 0.00 | 0.00 | 0.00 | 70 | 1014.1 |
| 20260504184028 | 25 | 240 | 11.3 | 24.1 | 0.00 | 0.00 | 0.00 | 69 | 1014.0 |
| 20260504183304 | 25 | 204 | 11.3 | 20.9 | 0.00 | 0.00 | 0.00 | 70 | 1014.1 |
| 20260504182804 | 25 | 167 | 12.9 | 29.0 | 0.00 | 0.00 | 0.00 | 70 | 1014.2 |
| 20260504182304 | 25 | 217 | 12.9 | 29.0 | 0.00 | 0.00 | 0.00 | 70 | 1014.4 |
| 20260504182255 | 25 | 163 | 14.5 | 25.7 | 0.00 | 0.00 | 0.00 | 70 | 1014.6 |
| 20260504181305 | 25 | 207 | 14.5 | 32.2 | 0.00 | 0.00 | 0.00 | 71 | 1014.5 |
| 20260504180804 | 25 | 172 | 12.9 | 32.2 | 0.00 | 0.00 | 0.00 | 71 | 1014.7 |
| 20260504180305 | 25 | 162 | 12.9 | 25.7 | 0.00 | 0.00 | 0.00 | 72 | 1014.7 |
| 20260504180040 | 25 | 179 | 14.5 | 29.0 | 0.00 | 0.00 | 0.00 | 71 | 1014.7 |
| 20260504175527 | 24 | 192 | 14.5 | 29.0 | 0.00 | 0.00 | 0.00 | 72 | 1014.8 |
| 20260504174804 | 24 | 173 | 12.9 | 27.4 | 0.00 | 0.00 | 0.00 | 74 | 1014.8 |
| 20260504174305 | 23 | 163 | 12.9 | 27.4 | 0.00 | 0.00 | 0.00 | 74 | 1014.8 |
| 20260504174027 | 23 | 190 | 14.5 | 32.2 | 0.00 | 0.00 | 0.00 | 74 | 1015.0 |
| 20260504173746 | 23 | 196 | 14.5 | 33.8 | 0.00 | 0.00 | 0.00 | 76 | 1015.0 |
| 20260504172803 | 23 | 190 | 16.1 | 33.8 | 0.00 | 0.00 | 0.00 | 74 | 1015.2 |
| 20260504172304 | 23 | 178 | 16.1 | 32.2 | 0.00 | 0.00 | 0.00 | 75 | 1015.2 |
| 20260504172020 | 23 | 180 | 12.9 | 32.2 | 0.00 | 0.00 | 0.00 | 75 | 1015.4 |
| 20260504171252 | 23 | 150 | 11.3 | 27.4 | 0.00 | 0.00 | 0.00 | 76 | 1015.4 |
| 20260504170746 | 23 | 182 | 12.9 | 32.2 | 0.00 | 0.00 | 0.00 | 75 | 1015.7 |
| 20260504170725 | 23 | 193 | 12.9 | 32.2 | 0.00 | 0.00 | 0.00 | 75 | 1015.7 |
| 20260504160234 | 22 | 173 | 14.5 | 33.8 | 0.00 | 0.00 | 0.00 | 77 | 1015.7 |
| 20260504150731 | 21 | 179 | 12.9 | 30.6 | 0.00 | 0.00 | 0.00 | 78 | 1016.0 |
| 20260504150231 | 21 | 219 | 14.5 | 30.6 | 0.00 | 0.00 | 0.00 | 78 | 1016.1 |
| 20260504141231 | 20 | 182 | 11.3 | 25.7 | 0.00 | 0.00 | 0.00 | 81 | 1016.0 |
| 20260504140946 | 19 | 190 | 11.3 | 27.4 | 0.00 | 0.00 | 0.00 | 82 | 1016.0 |
| 20260504140231 | 19 | 168 | 11.3 | 27.4 | 0.00 | 0.00 | 0.00 | 81 | 1016.0 |
| 20260504130731 | 17 | 163 | 9.7 | 22.5 | 0.00 | 0.00 | 0.00 | 86 | 1016.2 |
| 20260504130230 | 16 | 198 | 9.7 | 22.5 | 0.00 | 0.00 | 0.00 | 86 | 1016.2 |
| 20260504120209 | 15 | 213 | 8.0 | 22.5 | 0.00 | 0.00 | 0.00 | 90 | 1015.4 |
| 20260504110704 | 15 | 135 | 4.8 | 14.5 | 0.00 | 0.00 | 0.00 | 88 | 1015.5 |
| 20260504110427 | 15 | 148 | 4.8 | 14.5 | 0.00 | 0.00 | 0.00 | 87 | 1015.7 |